Weather in Markovka

Russia / Orenburg Oblast     52°21′01″N   52°40′03″E
temp.,
°C
wind,
m/s
gust,
m/s
humid.,
%
clouds,
%
prec.,
mm/h
press.,
hPa
HPBL,
m
17 may, mon
mon1723:00+23s3339100 0.8 101923
02:00+20s33483 0.0 101932
05:00+19sse495387 0.0 1019135
08:00+21s385117 0.0 1020183
11:00+28s46290 0.0 1020549
14:00+30s56190 0.0 10193264
17:00+31s45185 0.0 10183473
20:00+27ssw22320 0.0 101811
18 may, tue
tue1823:00+22sw11350 0.0 101811
02:00+21n11350 0.0 101811
05:00+19e22365 0.0 101811
08:00+23e12370 0.0 101876
11:00+29e22250 0.0 1017747
14:00+31nne33180 0.0 10173237
17:00+31nne34195 0.0 10163407
20:00+27nne35365 0.0 101568
19 may, wed
wed1923:00+22ne463420 0.0 101688
02:00+19e5125861 0.0 1016256
05:00+19ene5116414 0.0 1016287
08:00+19ene696224 0.0 1016273
11:00+24e78480 0.0 1016871
14:00+26e89390 0.0 10161758
17:00+26e89380 0.0 10161973
20:00+22e711480 0.0 1016590
20 may, thu
thu2023:00+19ese715540 0.0 1018546
02:00+16ese715560 0.0 1019521
05:00+15ese614570 0.0 1019455
08:00+16ese713570 0.0 1020627
11:00+20se810400 0.0 10191219
14:00+23ese793310 0.0 10191755
17:00+23se793285 0.0 10182211
20:00+21ese48445 0.0 1018250
21 may, fri
fri2123:00+16e4105165 0.0 1018181
02:00+15e4950100 0.0 1017146
05:00+15ese115174 0.0 101711
08:00+16e485689 0.0 1018321
11:00+21se56435 0.0 10171050
14:00+24se463791 0.0 10172005
17:00+25se443620 0.0 10172283
20:00+23se23469 0.0 101859